カタログに戻る

STARLINK-34479

運用中通信VLEO
NORAD 64365·PAYLOAD·🇺🇸 United States

打ち上げ Jun 13, 2025 から Vandenberg Space Force Base

Loading…

次のパス (今後24時間)

TLE

最新Source: CelesTrak SupGP

元期: Sep 14, 2026, 23:00 UTC

1 64365C 25126X   26257.95881944  .00069342  00000+0  24123-2 0  2574
2 64365  70.0006 275.5147 0003147 267.6987 169.7342 15.29542810    10

AllMySatでSTARLINK-34479をリアルタイム追跡

Download on the App Store